PSLV DEB

基本信息
目录编号:
28851
目录名称:
PSLV DEB
国际标识:
2001-049PD
轨道中心:
EARTH
物体状态:
已陨落(2024-11-30)
发射日期:
2001-10-22 UTC
轨道信息
数据来源: 国际轨道数据
星历时间: 2024-11-05T14:25:06+0800
半长轴: 6762.083km
偏心率: 0.0009273
轨道倾角: 97.803°
近地点辐角: 177.802°
升交点赤经: 14.347°
平近点角: 182.328°
近地点: 377.677km
远地点: 390.219km
周期: 92.232分钟
每日圈数: 15.612845
详细信息
发射场:
SRI
轨道高度:
LEO
数据来源:
AOE Integration Group
参考系:
TEME
时间系统:
UTC
历元类型:
SGP4
2D轨道图
3D轨道图
轨道高度分析图
轨道倾角分析图
轨道综合分析图
查看轨道综合分析图